• In Uzbekistan
  • List of Countries
  • For 7 days
  • Water Temperature
  • Weather Map
  • Weather Widgets
  • user-avatar
    Login

    Hourly Weather Carmarthen

    Today, 5 June, Friday

    Time Temperature Precipitation Wind Pressure Humidity
    00:00 +5°C° 0 mm 9 mps 748 mmHg 85%
    01:00 +5°C° 0 mm 9 mps 747 mmHg 85%
    02:00 +3°C° 0 mm 9 mps 747 mmHg 86%
    03:00 +3°C° 0 mm 9 mps 747 mmHg 87%
    04:00 +5°C° 0 mm 9 mps 747 mmHg 85%
    05:00 +5°C° 0 mm 8 mps 747 mmHg 84%
    06:00 +6°C° 0 mm 8 mps 747 mmHg 82%
    07:00 +7°C° 0.1 mm 8 mps 747 mmHg 78%
    08:00 +7°C° 0.1 mm 9 mps 747 mmHg 74%
    09:00 +8°C° 0.1 mm 9 mps 747 mmHg 70%
    10:00 +9°C° 0.1 mm 10 mps 746 mmHg 67%
    11:00 +9°C° 0.1 mm 10 mps 746 mmHg 65%
    12:00 +9°C° 0.1 mm 11 mps 746 mmHg 62%
    13:00 +9°C° 0.1 mm 11 mps 746 mmHg 62%
    14:00 +9°C° 0.1 mm 12 mps 746 mmHg 62%
    15:00 +9°C° 0.1 mm 12 mps 746 mmHg 62%
    16:00 +8°C° 0.1 mm 13 mps 746 mmHg 63%
    17:00 +8°C° 0.1 mm 13 mps 746 mmHg 64%
    18:00 +7°C° 0.1 mm 13 mps 746 mmHg 65%
    19:00 +5°C° 0.1 mm 13 mps 746 mmHg 68%
    20:00 +5°C° 0.1 mm 13 mps 746 mmHg 71%
    21:00 +4°C° 0.1 mm 12 mps 746 mmHg 74%
    22:00 +4°C° 0.3 mm 13 mps 745 mmHg 79%
    23:00 +4°C° 0.3 mm 13 mps 744 mmHg 84%

    Tomorrow, 6 June, Saturday

    Time Temperature Precipitation Wind Pressure Humidity
    00:00 +5°C° 0.3 mm 13 mps 744 mmHg 89%
    01:00 +5°C° 0.6 mm 13 mps 743 mmHg 91%
    02:00 +7°C° 0.6 mm 12 mps 743 mmHg 93%
    03:00 +8°C° 0.6 mm 11 mps 743 mmHg 95%
    04:00 +8°C° 0.2 mm 11 mps 743 mmHg 94%
    05:00 +8°C° 0.2 mm 11 mps 743 mmHg 94%
    06:00 +8°C° 0.2 mm 11 mps 743 mmHg 93%
    07:00 +8°C° 0.1 mm 11 mps 744 mmHg 91%
    08:00 +9°C° 0.1 mm 11 mps 745 mmHg 89%
    09:00 +9°C° 0.1 mm 10 mps 745 mmHg 87%
    10:00 +11°C° 0.1 mm 10 mps 746 mmHg 85%
    11:00 +11°C° 0.1 mm 11 mps 746 mmHg 82%
    12:00 +12°C° 0.1 mm 11 mps 746 mmHg 79%
    13:00 +12°C° 0.1 mm 10 mps 747 mmHg 78%
    14:00 +13°C° 0.1 mm 10 mps 747 mmHg 77%
    15:00 +13°C° 0.1 mm 9 mps 748 mmHg 77%
    16:00 +13°C° 0 mm 9 mps 748 mmHg 77%
    17:00 +12°C° 0 mm 9 mps 748 mmHg 78%
    18:00 +12°C° 0 mm 9 mps 748 mmHg 79%
    19:00 +11°C° 0 mm 9 mps 749 mmHg 81%
    20:00 +10°C° 0 mm 9 mps 749 mmHg 82%
    21:00 +10°C° 0 mm 8 mps 749 mmHg 83%
    22:00 +10°C° 0 mm 8 mps 750 mmHg 84%
    23:00 +10°C° 0 mm 9 mps 750 mmHg 84%

    Day after tomorrow, 7 June, Sunday

    Time Temperature Precipitation Wind Pressure Humidity
    00:00 +8°C° 0 mm 9 mps 750 mmHg 84%
    01:00 +8°C° 0 mm 9 mps 750 mmHg 84%
    02:00 +8°C° 0 mm 9 mps 751 mmHg 84%
    03:00 +8°C° 0 mm 9 mps 751 mmHg 84%
    04:00 +8°C° 0 mm 9 mps 752 mmHg 83%
    05:00 +8°C° 0 mm 9 mps 752 mmHg 83%
    06:00 +8°C° 0 mm 9 mps 753 mmHg 82%
    07:00 +10°C° 0 mm 9 mps 753 mmHg 79%
    08:00 +11°C° 0 mm 8 mps 754 mmHg 76%
    09:00 +12°C° 0 mm 8 mps 755 mmHg 73%
    10:00 +14°C° 0 mm 7 mps 755 mmHg 72%
    11:00 +15°C° 0 mm 7 mps 756 mmHg 70%
    12:00 +15°C° 0 mm 6 mps 756 mmHg 68%
    13:00 +16°C° 0 mm 7 mps 756 mmHg 68%
    14:00 +16°C° 0 mm 7 mps 756 mmHg 68%
    15:00 +16°C° 0 mm 7 mps 757 mmHg 68%
    16:00 +15°C° 0 mm 7 mps 757 mmHg 70%
    17:00 +14°C° 0 mm 7 mps 757 mmHg 73%
    18:00 +12°C° 0 mm 8 mps 758 mmHg 75%
    19:00 +11°C° 0 mm 7 mps 758 mmHg 77%
    20:00 +9°C° 0 mm 7 mps 759 mmHg 80%
    21:00 +6°C° 0 mm 7 mps 759 mmHg 83%
    22:00 +7°C° 0 mm 6 mps 759 mmHg 84%
    23:00 +6°C° 0 mm 5 mps 760 mmHg 86%

    8 June, Monday

    Time Temperature Precipitation Wind Pressure Humidity
    00:00 +5°C° 0 mm 4 mps 760 mmHg 87%
    01:00 +5°C° 0 mm 4 mps 760 mmHg 88%
    02:00 +5°C° 0 mm 3 mps 760 mmHg 90%
    03:00 +5°C° 0 mm 3 mps 760 mmHg 91%
    04:00 +7°C° 0 mm 3 mps 761 mmHg 88%
    05:00 +8°C° 0 mm 3 mps 761 mmHg 86%
    06:00 +8°C° 0 mm 3 mps 761 mmHg 83%
    07:00 +9°C° 0 mm 3 mps 761 mmHg 81%
    08:00 +10°C° 0 mm 3 mps 762 mmHg 79%
    09:00 +10°C° 0 mm 3 mps 762 mmHg 76%
    10:00 +11°C° 0 mm 3 mps 762 mmHg 75%
    11:00 +11°C° 0 mm 3 mps 762 mmHg 73%
    12:00 +12°C° 0 mm 2 mps 762 mmHg 72%
    13:00 +13°C° 0 mm 2 mps 763 mmHg 71%
    14:00 +13°C° 0 mm 2 mps 763 mmHg 70%
    15:00 +13°C° 0 mm 1 mps 763 mmHg 69%
    16:00 +13°C° 0 mm 1 mps 763 mmHg 70%
    17:00 +13°C° 0 mm 1 mps 763 mmHg 72%
    18:00 +13°C° 0 mm 1 mps 763 mmHg 73%
    19:00 +12°C° 0 mm 1 mps 763 mmHg 77%
    20:00 +9°C° 0 mm 2 mps 763 mmHg 81%
    21:00 +8°C° 0 mm 2 mps 764 mmHg 85%
    22:00 +7°C° 0 mm 2 mps 764 mmHg 87%
    23:00 +6°C° 0 mm 2 mps 764 mmHg 88%

    9 June, Tuesday

    Time Temperature Precipitation Wind Pressure Humidity
    00:00 +6°C° 0 mm 2 mps 764 mmHg 89%
    01:00 +6°C° 0 mm 2 mps 764 mmHg 89%
    02:00 +7°C° 0 mm 1 mps 764 mmHg 88%
    03:00 +7°C° 0 mm 1 mps 764 mmHg 87%
    04:00 +8°C° 0 mm 1 mps 764 mmHg 85%
    05:00 +8°C° 0 mm 1 mps 764 mmHg 82%
    06:00 +9°C° 0 mm 1 mps 764 mmHg 80%
    07:00 +10°C° 0 mm 1 mps 764 mmHg 77%
    08:00 +12°C° 0 mm 1 mps 764 mmHg 74%
    09:00 +13°C° 0 mm 1 mps 764 mmHg 71%
    10:00 +13°C° 0 mm 1 mps 764 mmHg 72%
    11:00 +13°C° 0 mm 1 mps 764 mmHg 72%
    12:00 +13°C° 0 mm 2 mps 764 mmHg 72%
    13:00 +14°C° 0 mm 2 mps 764 mmHg 72%
    14:00 +14°C° 0 mm 2 mps 764 mmHg 72%
    15:00 +14°C° 0 mm 2 mps 764 mmHg 72%
    16:00 +14°C° 0 mm 2 mps 764 mmHg 72%
    17:00 +13°C° 0 mm 3 mps 764 mmHg 72%
    18:00 +13°C° 0 mm 3 mps 764 mmHg 72%
    19:00 +12°C° 0 mm 3 mps 765 mmHg 77%
    20:00 +10°C° 0 mm 3 mps 765 mmHg 82%
    21:00 +9°C° 0 mm 2 mps 765 mmHg 87%
    22:00 +8°C° 0 mm 2 mps 765 mmHg 87%
    23:00 +8°C° 0 mm 2 mps 765 mmHg 87%

    10 June, Wednesday

    Time Temperature Precipitation Wind Pressure Humidity
    00:00 +7°C° 0 mm 2 mps 765 mmHg 87%
    01:00 +7°C° 0 mm 2 mps 765 mmHg 88%
    02:00 +7°C° 0 mm 2 mps 765 mmHg 88%
    03:00 +7°C° 0 mm 2 mps 765 mmHg 89%
    04:00 +8°C° 0 mm 2 mps 765 mmHg 87%
    05:00 +9°C° 0 mm 2 mps 765 mmHg 85%
    06:00 +10°C° 0 mm 2 mps 765 mmHg 83%
    07:00 +12°C° 0 mm 3 mps 765 mmHg 79%
    08:00 +13°C° 0 mm 3 mps 765 mmHg 75%
    09:00 +14°C° 0 mm 3 mps 766 mmHg 72%
    10:00 +15°C° 0 mm 4 mps 766 mmHg 68%
    11:00 +17°C° 0 mm 4 mps 766 mmHg 65%
    12:00 +17°C° 0 mm 4 mps 766 mmHg 62%
    13:00 +17°C° 0 mm 4 mps 766 mmHg 67%
    14:00 +15°C° 0 mm 4 mps 766 mmHg 71%
    15:00 +15°C° 0 mm 4 mps 766 mmHg 76%
    16:00 +14°C° 0.2 mm 4 mps 766 mmHg 82%
    17:00 +13°C° 0.2 mm 3 mps 766 mmHg 88%
    18:00 +12°C° 0.2 mm 3 mps 766 mmHg 94%
    19:00 +13°C° 0.1 mm 2 mps 766 mmHg 95%
    20:00 +13°C° 0.1 mm 2 mps 766 mmHg 96%
    21:00 +12°C° 0.1 mm 2 mps 766 mmHg 97%
    22:00 +12°C° 0.3 mm 2 mps 766 mmHg 97%
    23:00 +12°C° 0.3 mm 2 mps 765 mmHg 98%
    Show more